Stations météo

Publicité
Berus, Allemagne (10704): Température de l'air & dewpoint: 03.04.2020 13:00:00 - 09.04.2020 13:00:00 (CEST)Berus, Allemagne (10704): Température de l'air 5cm & Température de l'air -5cm: 03.04.2020 13:00:00 - 09.04.2020 13:00:00 (CEST)Berus, Allemagne (10704): Température de l'air -20cm & Température de l'air -100cm: 03.04.2020 13:00:00 - 09.04.2020 13:00:00 (CEST)Berus, Allemagne (10704): Vitesse du vent & gusts: 03.04.2020 13:00:00 - 09.04.2020 13:00:00 (CEST)Berus, Allemagne (10704): Direction du vent: 03.04.2020 13:00:00 - 09.04.2020 13:00:00 (CEST)Berus, Allemagne (10704): reduced air pressure: 03.04.2020 13:00:00 - 09.04.2020 13:00:00 (CEST)Berus, Allemagne (10704): visibility: 03.04.2020 13:00:00 - 09.04.2020 13:00:00 (CEST)Berus, Allemagne (10704): Ensoleillement: 03.04.2020 13:00:00 - 09.04.2020 13:00:00 (CEST)Berus, Allemagne (10704): Quantités de précipitations: 03.04.2020 13:00:00 - 09.04.2020 13:00:00 (CEST)
Date & Time tt [°C] td [°C] tt 5cm [°C] tt -5cm [°C] tt -20cm [°C] tt -100cm [°C] ff [km/h] ff [knt] fx [km/h] fx [knt] dd ppp [hPa] vv [km] sd [min] rr [mm]
09.04.2020 13:00:00 19,0 6,6 28,0 18,8 13,3 9,2 7 4 11 6 ENE 1023,6 28 20 0,0
09.04.2020 12:00:00 16,8 5,7 21,1 17,1 13,1 9,2 4 2 8 5 ENE 1024,2 27 1 0,0
09.04.2020 11:00:00 16,0 5,9 21,3 15,4 12,9 9,2 2 1 6 4 NE 1024,3 27 7 0,0
09.04.2020 10:00:00 16,0 6,0 18,9 13,3 13,0 9,2 3 2 6 4 W 1023,7 34 4 0,0
09.04.2020 09:00:00 12,4 3,8 13,9 11,8 13,1 9,2 0 0 8 4 N 1024,0 32 2 0,0
09.04.2020 08:00:00 10,7 3,6 8,3 11,0 13,4 9,2 3 2 8 4 ENE 1023,8 31 0 0,0
09.04.2020 07:00:00 11,9 3,6 5,7 11,2 13,6 9,1 5 3 7 4 NE 1023,1 27 0 0,0
09.04.2020 06:00:00 13,0 2,7 7,2 11,7 13,9 9,1 6 3 7 4 NE 1023,1 34 0 0,0
09.04.2020 05:00:00 14,6 1,5 7,3 12,1 14,2 9,1 3 2 6 3 ENE 1022,7 35 0 0,0
09.04.2020 04:00:00 14,8 1,2 7,9 12,6 14,4 9,1 4 2 10 5 N 1022,7 37 0 0,0
09.04.2020 03:00:00 15,1 0,7 9,7 12,9 14,8 9,1 6 3 8 4 WSW 1022,9 43 0 0,0
09.04.2020 02:00:00 16,0 0,7 7,6 13,2 15,1 9,1 5 3 9 5 NW 1022,9 44 0 0,0
09.04.2020 01:00:00 16,7 1,0 10,3 13,9 15,5 9,1 6 4 7 4 SE 1022,9 41 0 0,0
09.04.2020 00:00:00 17,2 0,7 8,5 14,7 15,8 9,0 6 4 17 9 E 1023,0 51 0 0,0
08.04.2020 23:00:00 16,8 0,6 7,5 15,7 16,1 9,0 3 2 10 5 WSW 1022,9 47 0 0,0
08.04.2020 22:00:00 17,7 0,1 11,0 16,9 16,4 9,0 9 5 16 8 NW 1022,8 48 0 0,0
08.04.2020 21:00:00 18,5 0,1 13,3 18,2 16,5 9,0 9 5 13 7 NW 1022,5 52 0 0,0
08.04.2020 20:00:00 18,9 0,1 15,5 20,0 16,5 9,0 9 5 15 8 WNW 1022,1 54 56 0,0
08.04.2020 19:00:00 21,2 1,0 23,1 21,6 16,3 8,9 8 4 16 9 W 1021,9 56 60 0,0
08.04.2020 18:00:00 21,2 -0,5 26,3 23,0 15,8 8,9 6 3 14 7 N 1022,0 30 60 0,0
08.04.2020 17:00:00 21,8 0,2 28,8 23,9 15,3 8,9 8 4 19 10 NNE 1022,1 48 60 0,0
08.04.2020 16:00:00 21,7 0,9 30,3 24,1 14,6 8,9 9 5 19 10 NNE 1022,6 43 60 0,0
08.04.2020 15:00:00 21,5 0,7 28,1 23,9 13,9 8,9 8 4 18 10 E 1023,2 54 60 0,0
08.04.2020 14:00:00 20,5 2,5 29,1 22,6 13,3 8,9 10 6 21 12 NE 1023,8 40 60 0,0
08.04.2020 13:00:00 19,0 3,4 30,4 20,7 12,8 8,8 5 3 13 7 E 1024,7 39 60 0,0
08.04.2020 12:00:00 18,1 4,5 24,0 18,4 12,4 8,8 6 3 13 7 E 1025,4 46 60 0,0
08.04.2020 11:00:00 16,0 5,5 22,5 15,8 12,2 8,8 8 4 17 9 E 1025,8 35 60 0,0
08.04.2020 10:00:00 13,8 5,0 17,2 13,3 12,2 8,8 5 3 14 7 SSE 1026,4 36 60 0,0
08.04.2020 09:00:00 12,3 5,3 15,2 11,3 12,4 8,8 11 6 20 11 NE 1026,2 46 60 0,0
08.04.2020 08:00:00 11,1 5,5 9,2 10,5 12,6 8,8 17 9 24 13 NE 1026,3 35 28 0,0
08.04.2020 07:00:00 10,9 5,0 8,0 10,8 12,9 8,8 20 11 25 14 NE 1026,1 42 0 0,0
08.04.2020 06:00:00 11,5 5,2 8,6 11,1 13,1 8,8 21 11 26 14 NNE 1026,1 43 0 0,0
08.04.2020 05:00:00 11,9 5,4 8,9 11,5 13,4 8,8 20 11 23 13 NE 1026,3 47 0 0,0
08.04.2020 04:00:00 12,2 5,5 8,7 11,9 13,7 8,8 16 9 22 12 NE 1026,6 44 0 0,0
08.04.2020 03:00:00 12,8 5,2 9,1 12,4 14,0 8,7 16 9 21 11 NNE 1026,7 54 0 0,0
08.04.2020 02:00:00 13,2 4,7 9,2 13,0 14,3 8,7 16 8 21 11 NE 1027,1 58 0 0,0
08.04.2020 01:00:00 14,2 4,2 11,0 13,6 14,6 8,7 16 9 21 12 NE 1027,1 62 0 0,0
08.04.2020 00:00:00 14,9 3,3 11,7 14,3 14,9 8,7 16 9 24 13 NNE 1027,1 60 0 0,0
07.04.2020 23:00:00 15,5 2,9 12,4 15,1 15,2 8,7 17 9 24 13 NE 1026,9 53 0 0,0
07.04.2020 22:00:00 15,6 2,6 12,4 16,1 15,4 8,7 14 8 28 15 NE 1027,0 63 0 0,0
07.04.2020 21:00:00 17,6 2,3 14,6 17,5 15,5 8,7 18 10 32 17 NE 1026,3 61 0 0,0
07.04.2020 20:00:00 18,9 1,7 16,6 19,0 15,5 8,6 17 9 31 17 NE 1025,7 70 55 0,0
07.04.2020 19:00:00 21,0 0,7 21,8 20,6 15,2 8,6 14 7 36 19 ENE 1025,5 53 49 0,0
07.04.2020 18:00:00 21,6 1,7 26,1 22,2 14,8 8,6 18 10 36 20 NE 1025,5 56 60 0,0
07.04.2020 17:00:00 21,9 2,5 28,2 23,5 14,2 8,6 19 10 32 17 NE 1025,7 42 60 0,0
07.04.2020 16:00:00 22,7 1,6 29,4 23,2 13,5 8,6 12 6 30 16 E 1026,3 33 59 0,0
07.04.2020 15:00:00 22,0 1,1 28,3 22,7 12,8 8,6 10 6 30 16 E 1027,1 48 60 0,0
07.04.2020 14:00:00 21,6 0,2 29,6 21,6 12,1 8,5 6 4 24 13 E 1027,7 53 60 0,0
07.04.2020 13:00:00 20,1 3,5 29,3 19,6 11,6 8,5 13 7 23 12 NE 1028,3 55 60 0,0
07.04.2020 12:00:00 18,1 5,2 26,1 17,2 11,2 8,5 13 7 23 12 NE 1029,1 36 60 0,0
07.04.2020 11:00:00 15,8 5,8 22,5 14,6 10,9 8,5 16 8 21 12 NE 1029,4 27 60 0,0
07.04.2020 10:00:00 13,2 5,0 18,2 12,3 10,9 8,5 15 8 23 12 NE 1029,6 37 60 0,0
07.04.2020 09:00:00 12,1 4,6 15,7 10,3 11,0 8,5 17 9 24 13 NE 1029,6 36 57 0,0
07.04.2020 08:00:00 10,2 3,5 9,3 9,0 11,2 8,5 18 10 23 13 NE 1029,5 39 27 0,0
07.04.2020 07:00:00 8,5 1,2 5,3 9,0 11,5 8,5 15 8 18 10 NE 1029,3 39 0 0,0
07.04.2020 06:00:00 8,8 1,5 5,4 9,4 11,7 8,5 15 8 17 9 NE 1028,9 43 0 0,0
07.04.2020 05:00:00 11,4 1,9 7,2 9,9 11,9 8,5 12 6 16 9 NNE 1028,0 52 0 0,0
07.04.2020 04:00:00 12,5 1,8 7,7 10,2 12,2 8,5 10 6 16 9 N 1027,6 50 0 0,0
07.04.2020 03:00:00 12,5 1,8 5,9 10,6 12,5 8,5 9 5 11 6 N 1027,4 35 0 0,0
07.04.2020 02:00:00 13,9 1,8 7,8 11,2 12,8 8,4 10 6 15 8 NNE 1027,0 41 0 0,0
07.04.2020 01:00:00 14,8 1,3 10,3 11,7 13,1 8,4 12 6 18 10 NNW 1026,5 53 0 0,0
07.04.2020 00:00:00 15,7 -0,3 6,2 12,2 13,4 8,4 5 3 9 5 N 1025,7 70 0 0,0
06.04.2020 23:00:00 16,4 0,0 7,6 13,0 13,7 8,4 6 4 9 5 WNW 1025,4 74 0 0,0
06.04.2020 22:00:00 15,8 -0,9 7,5 14,1 13,9 8,4 6 4 13 7 W 1025,2 60 0 0,0
06.04.2020 21:00:00 16,3 0,0 11,5 15,5 14,0 8,4 11 6 13 7 W 1024,3 55 0 0,0
06.04.2020 20:00:00 17,1 0,2 13,0 17,1 13,9 8,4 9 5 24 13 SW 1023,2 50 58 0,0
06.04.2020 19:00:00 19,3 -0,8 20,1 18,5 13,7 8,4 19 10 35 19 SW 1022,4 75 60 0,0
06.04.2020 18:00:00 20,2 -1,0 23,1 19,9 13,3 8,3 24 13 37 20 SW 1022,0 53 60 0,0
06.04.2020 17:00:00 20,7 -0,1 24,8 20,7 12,8 8,3 20 11 42 23 SSW 1021,9 39 60 0,0
06.04.2020 16:00:00 20,2 -0,8 24,0 20,9 12,2 8,3 27 14 45 25 SW 1021,8 42 60 0,0
06.04.2020 15:00:00 19,8 -0,5 24,6 20,7 11,5 8,3 29 16 46 25 SSW 1021,8 50 60 0,0
06.04.2020 14:00:00 19,1 0,5 24,7 19,5 10,9 8,3 24 13 38 21 S 1021,8 48 60 0,0
06.04.2020 13:00:00 18,3 1,5 23,8 17,7 10,4 8,3 23 12 38 21 SW 1021,9 48 60 0,0
06.04.2020 12:00:00 16,9 1,2 21,3 15,5 10,0 8,3 29 16 41 22 SW 1022,1 33 60 0,0
06.04.2020 11:00:00 15,6 1,8 19,1 13,1 9,8 8,3 18 10 33 18 SSW 1022,1 42 60 0,0
06.04.2020 10:00:00 11,8 1,4 14,8 10,5 9,8 8,3 11 6 18 10 SSW 1022,4 46 60 0,0
06.04.2020 09:00:00 10,0 0,7 12,0 8,3 10,0 8,3 7 4 22 12 S 1022,2 44 60 0,0
06.04.2020 08:00:00 7,8 0,1 5,6 7,5 10,2 8,3 13 7 20 11 S 1021,8 47 29 0,0
06.04.2020 07:00:00 7,6 0,1 4,5 7,7 10,5 8,3 15 8 19 10 S 1021,0 36 0 0,0
06.04.2020 06:00:00 8,5 0,2 5,6 8,0 10,8 8,3 15 8 19 11 S 1020,3 38 0 0,0
06.04.2020 05:00:00 9,4 -0,3 6,0 8,4 11,0 8,3 11 6 15 8 SSE 1019,8 40 0 0,0
06.04.2020 04:00:00 9,8 -0,6 4,6 8,9 11,3 8,2 7 4 10 5 ESE 1019,8 47 0 0,0
06.04.2020 03:00:00 10,6 -0,5 4,4 9,4 11,6 8,2 7 4 11 6 E 1019,7 51 0 0,0
06.04.2020 02:00:00 10,9 -0,4 4,9 10,0 12,0 8,2 9 5 16 9 ENE 1019,5 47 0 0,0
06.04.2020 01:00:00 11,0 -0,3 5,9 10,7 12,3 8,2 12 7 19 11 ENE 1019,2 52 0 0,0
06.04.2020 00:00:00 11,9 -0,4 6,6 11,5 12,6 8,2 12 6 18 10 ENE 1018,9 69 0 0,0
05.04.2020 23:00:00 13,0 -0,5 8,1 12,5 12,8 8,2 11 6 19 10 ENE 1018,9 53 0 0,0
05.04.2020 22:00:00 14,1 -0,9 10,9 13,6 13,0 8,2 12 7 23 12 E 1019,0 42 0 0,0
05.04.2020 21:00:00 15,1 -0,8 12,4 14,8 13,1 8,2 13 7 24 13 ENE 1018,5 62 0 0,0
05.04.2020 20:00:00 16,8 -3,3 14,2 16,3 13,0 8,2 8 4 20 11 SE 1018,2 61 58 0,0
05.04.2020 19:00:00 18,2 -3,2 19,5 17,9 12,7 8,2 11 6 26 14 ESE 1018,0 54 60 0,0
05.04.2020 18:00:00 18,7 -3,2 23,0 19,2 12,3 8,2 10 5 25 13 E 1018,2 44 60 0,0
05.04.2020 17:00:00 19,1 -2,1 23,9 20,2 11,7 8,1 10 5 25 14 SE 1018,6 61 60 0,0
05.04.2020 16:00:00 19,0 -0,8 25,1 20,3 11,0 8,1 12 6 24 13 E 1019,2 59 60 0,0
05.04.2020 15:00:00 18,2 -0,3 25,1 19,8 10,3 8,1 12 7 24 13 E 1019,9 49 60 0,0
05.04.2020 14:00:00 17,6 -0,2 25,5 18,5 9,6 8,1 11 6 24 13 E 1020,7 28 60 0,0
05.04.2020 13:00:00 15,5 -0,3 22,1 16,5 9,1 8,1 13 7 24 13 E 1021,6 49 60 0,0
05.04.2020 12:00:00 14,1 -0,1 20,7 14,0 8,7 8,1 11 6 23 13 E 1022,4 36 60 0,0
05.04.2020 11:00:00 11,9 -0,6 16,5 11,4 8,5 8,1 14 7 26 14 E 1022,9 41 60 0,0
05.04.2020 10:00:00 9,6 0,2 13,4 8,8 8,5 8,1 18 10 28 15 ENE 1023,1 48 60 0,0
05.04.2020 09:00:00 7,4 -0,5 10,1 6,7 8,7 8,1 15 8 23 13 NE 1023,4 46 60 0,0
05.04.2020 08:00:00 5,6 -0,7 3,2 5,9 8,9 8,1 17 9 20 11 NE 1023,4 40 23 0,0
05.04.2020 07:00:00 4,9 -0,9 1,8 6,1 9,1 8,1 15 8 24 13 NE 1023,2 39 0 0,0
05.04.2020 06:00:00 5,9 -0,9 3,0 6,5 9,4 8,1 16 9 26 14 ENE 1023,0 33 0 0,0
05.04.2020 05:00:00 6,6 -0,8 3,6 6,9 9,6 8,1 16 8 26 14 ENE 1022,9 37 0 0,0
05.04.2020 04:00:00 6,7 -0,8 3,9 7,3 9,9 8,1 17 9 25 14 NE 1022,8 40 0 0,0
05.04.2020 03:00:00 7,1 -0,8 4,2 7,7 10,2 8,1 16 9 26 14 ENE 1023,1 41 0 0,0
05.04.2020 02:00:00 6,9 -0,8 3,6 8,2 10,5 8,1 16 9 21 11 NE 1023,3 41 0 0,0
05.04.2020 01:00:00 7,1 -1,0 4,2 8,8 10,8 8,1 17 9 21 11 NE 1023,5 42 0 0,0
05.04.2020 00:00:00 7,8 -1,5 4,8 9,5 11,1 8,1 17 9 22 12 NE 1023,3 48 0 0,0
04.04.2020 23:00:00 8,2 -1,2 4,7 10,4 11,3 8,1 14 7 24 13 NE 1023,3 44 0 0,0
04.04.2020 22:00:00 9,4 -1,0 6,8 11,4 11,5 8,1 15 8 27 15 NE 1023,2 42 0 0,0
04.04.2020 21:00:00 10,4 -0,5 7,5 12,6 11,6 8,1 15 8 21 12 NE 1022,8 47 0 0,0
04.04.2020 20:00:00 12,5 -2,1 10,3 14,2 11,5 8,1 10 5 20 11 ENE 1022,1 60 56 0,0
04.04.2020 19:00:00 13,8 -1,8 16,1 15,7 11,2 8,1 11 6 22 12 E 1021,7 48 60 0,0
04.04.2020 18:00:00 14,6 -2,3 19,7 17,0 10,8 8,1 10 5 27 15 E 1021,6 50 60 0,0
04.04.2020 17:00:00 14,6 -2,3 20,3 18,0 10,2 8,1 9 5 24 13 ESE 1021,7 53 60 0,0
04.04.2020 16:00:00 13,3 -2,2 21,6 18,0 9,5 8,1 9 5 23 13 NE 1022,7 46 60 0,0
04.04.2020 15:00:00 12,2 -1,7 23,7 17,6 8,9 8,1 11 6 24 13 NE 1023,1 46 60 0,0
04.04.2020 14:00:00 11,9 -1,3 20,7 16,3 8,2 8,1 14 8 27 14 NE 1023,6 56 60 0,0
04.04.2020 13:00:00 10,6 -1,3 18,1 14,5 7,7 8,1 9 5 21 11 ENE 1024,3 50 60 0,0
04.04.2020 12:00:00 9,8 -0,5 17,5 12,1 7,3 8,1 9 5 20 11 NE 1024,7 45 60 0,0
04.04.2020 11:00:00 7,3 -1,1 13,5 9,4 7,1 8,1 9 5 16 8 ENE 1025,1 40 60 0,0
04.04.2020 10:00:00 5,1 -1,5 10,7 6,8 7,1 8,1 9 5 14 8 NE 1025,0 57 60 0,0
04.04.2020 09:00:00 3,6 -1,7 7,7 4,7 7,3 8,1 11 6 15 8 NE 1024,7 34 60 0,0
04.04.2020 08:00:00 1,5 -1,6 -0,4 4,0 7,5 8,1 11 6 14 8 NNE 1024,5 25 23 0,0
04.04.2020 07:00:00 2,4 -2,2 -0,3 4,4 7,7 8,1 8 4 16 9 NE 1023,9 43 0 0,0
04.04.2020 06:00:00 2,8 -1,4 0,8 4,2 7,9 8,1 10 5 14 7 NNE 1023,6 37 0 0,0
04.04.2020 05:00:00 2,7 -1,8 -1,4 4,4 8,2 8,0 11 6 14 7 NNE 1023,3 40 0 0,0
04.04.2020 04:00:00 3,9 -0,9 -2,8 4,8 8,5 8,0 6 3 8 4 NNE 1022,8 27 0 0,0
04.04.2020 03:00:00 3,8 -1,3 -2,4 5,4 8,7 8,0 6 3 8 5 NNE 1022,7 44 0 0,0
04.04.2020 02:00:00 4,7 -1,2 -2,6 6,0 9,0 8,0 6 3 9 5 NE 1022,4 48 0 0,0
04.04.2020 01:00:00 4,2 -1,6 -2,4 6,8 9,2 8,0 7 4 10 5 NE 1022,5 51 0 0,0
04.04.2020 00:00:00 5,4 -1,7 0,2 7,9 9,4 8,0 9 5 17 9 NNE 1021,9 68 0 0,0
03.04.2020 23:00:00 7,2 -1,5 5,5 8,7 9,6 8,0 10 6 21 11 N 1021,3 51 0 0,0
03.04.2020 22:00:00 7,5 -0,3 6,2 9,2 9,7 8,0 13 7 29 16 N 1020,7 45 0 0,0
03.04.2020 21:00:00 7,8 1,0 6,4 9,6 9,8 8,0 8 5 11 6 W 1020,0 42 0 0,0
03.04.2020 20:00:00 8,6 0,6 7,2 10,8 9,8 8,0 6 3 15 8 WNW 1019,4 44 0 0,0
03.04.2020 19:00:00 9,4 0,8 9,8 11,6 9,8 8,0 8 4 16 9 W 1018,8 41 2 0,0
03.04.2020 18:00:00 9,4 0,7 10,8 11,9 9,7 8,0 10 5 19 10 NW 1018,4 45 0 0,0
03.04.2020 17:00:00 9,7 1,1 11,3 12,4 9,5 8,0 14 7 25 14 NNW 1018,3 45 0 0,0
03.04.2020 16:00:00 10,0 1,1 11,2 13,2 9,1 8,0 10 6 29 15 WNW 1018,0 48 4 0,0
03.04.2020 15:00:00 10,6 1,7 14,8 14,6 8,6 8,0 16 8 26 14 WSW 1017,7 41 26 0,0
03.04.2020 14:00:00 10,7 2,6 16,6 14,2 8,1 8,0 11 6 25 13 WSW 1017,8 37 14 0,0
03.04.2020 13:00:00 9,8 2,7 16,6 12,7 7,8 8,0 13 7 24 13 SW 1018,0 42 49 0,0

tt = Température de l'air
td = dewpoint
tt 5cm = Température de l'air 5cm
tt -5cm = Température de l'air -5cm
tt -20cm = Température de l'air -20cm
tt -100cm = Température de l'air -100cm
ff = Vitesse du vent
fx = gusts
dd = Direction du vent
ppp = reduced air pressure
vv = visibility
sd = Ensoleillement
rr = Quantités de précipitations

stations d'obs. à proximité